[[{"header":{"parameterUnit":"m.s-1","parameterCategory":1,"la1":30.2991,"la2":30.254,"lo1":-89.0895,"lo2":-89.0444,"dy":0.0017,"dx":0.0017,"nx":28,"ny":28,"refTime":"2024-05-12T21:00:00:Z","depth":0,"parameterNumber":2,"parameterNumberName":"U-component_of_WINDS"},"data":[0,0,0,0,0,0,0,0,0,0,0,0,0,0,0,0,0,0,0,0,0,0,0,0,0,0,0,0,0,0,0,0,0,0,0,0,0,0,0,0,0,0,0,0,0,0,0,0,0,0,0,0,0,0,0,0,0,0,-2.6288,-2.6289,0,-2.6381,-2.6382,-2.6383,-2.6397,-2.6396,-2.6395,-2.6394,-2.6492,-2.6495,-2.6498,0,0,0,0,0,0,0,0,0,0,0,0,0,-2.6127,-2.6129,-2.6288,-2.6289,-2.6291,-2.6381,-2.6382,-2.6383,-2.6397,-2.6396,-2.6395,-2.6394,-2.6491,-2.6495,-2.6499,0,0,0,0,0,0,0,0,0,0,0,0,0,-2.6206,-2.613,-2.6288,-2.6308,-2.6311,-2.638,-2.6382,-2.6384,-2.6397,-2.6396,-2.6395,-2.6393,-2.6489,-2.6494,-2.6499,-2.6556,0,0,-2.6515,-2.6517,0,0,0,0,0,0,0,0,-2.6201,-2.6212,-2.6304,-2.6307,-2.631,-2.6376,-2.6361,-2.6442,-2.6397,-2.6365,-2.6394,-2.6393,-2.6454,-2.6462,-2.6483,-2.6561,-2.6565,-2.6515,-2.6518,-2.6521,-2.6522,0,0,0,0,0,0,0,-2.6196,-2.6208,-2.6325,-2.6305,-2.6309,-2.6314,-2.6324,-2.6376,-2.6416,-2.6367,-2.6368,-2.6379,-2.6456,-2.6478,-2.6485,-2.6566,-2.6515,-2.652,-2.6523,-2.6525,-2.6696,-2.6698,0,0,0,0,0,0,-2.6186,-2.6203,-2.6322,-2.6328,-2.6251,-2.6318,-2.6329,-2.6356,-2.6415,-2.6423,-2.638,-2.6379,-2.647,-2.6479,-2.6488,-2.6559,-2.652,-2.6525,-2.6528,-2.6695,-2.6696,-2.6698,0,0,0,0,0,0,-2.6183,-2.6197,-2.6318,-2.6266,-2.6282,-2.6322,-2.6353,-2.6359,-2.638,-2.6425,-2.6432,-2.6395,-2.6469,-2.6481,-2.6539,-2.6562,-2.6528,-2.6532,-2.6693,-2.6695,-2.6697,-2.67,0,0,0,0,0,0,-2.6178,-2.6195,-2.6216,-2.6266,-2.6284,-2.6366,-2.6354,-2.6361,-2.6389,-2.6389,-2.644,-2.6448,-2.6469,-2.6531,-2.6544,-2.6569,-2.6536,-2.6691,-2.6694,-2.6697,-2.6698,-2.6702,-2.6705,0,0,0,0,0,-2.6172,-2.6214,-2.6217,-2.6232,-2.6311,-2.6368,-2.6378,-2.6401,-2.639,-2.6413,-2.6441,-2.6446,-2.6558,-2.6537,-2.6552,-2.6578,-2.669,-2.6693,-2.6696,-2.6696,-2.6701,-2.6705,0,0,0,0,0,0,-2.6167,-2.6221,-2.6225,-2.6284,-2.6321,-2.637,-2.6398,-2.6405,-2.6447,-2.6445,-2.6472,-2.6484,-2.654,-2.6565,-2.6541,-2.6636,-2.6623,-2.6629,-2.6618,-2.6623,-2.6626,-2.6619,-2.654,0,0,0,0,0,-2.6172,-2.6212,-2.6258,-2.6305,-2.6324,-2.6358,-2.6383,-2.6397,-2.6437,-2.6453,-2.6486,-2.6525,-2.6569,-2.6598,-2.6641,-2.6702,-2.6713,-2.6727,-2.6731,-2.6734,-2.6739,-2.6773,-2.678,-2.6709,-2.6709,-2.6709,0,0,-2.6184,-2.6219,-2.6242,-2.6305,-2.6335,-2.6377,-2.6371,-2.6415,-2.6447,-2.646,-2.6516,-2.6542,-2.6588,-2.6647,-2.6675,-2.667,-2.6761,-2.6738,-2.674,-2.6744,-2.6777,-2.6784,-2.679,-2.6712,-2.6711,-2.6711,0,0,-2.6227,-2.6257,-2.63,-2.6331,-2.6376,-2.6399,-2.6409,-2.6457,-2.6474,-2.6531,-2.6542,-2.6581,-2.6656,-2.6688,-2.6714,-2.677,-2.6776,-2.6784,-2.6803,-2.6836,-2.6842,-2.6847,-2.6867,-2.6873,-2.6789,-2.6789,-2.6789,0,-2.6236,-2.6299,-2.6322,-2.6366,-2.6393,-2.6407,-2.6451,-2.648,-2.6538,-2.6557,-2.655,-2.6644,-2.6676,-2.6744,-2.6757,-2.6778,-2.6791,-2.6777,-2.6839,-2.6844,-2.6849,-2.6869,-2.6876,-2.6789,-2.6789,-2.6789,-2.6789,0,-2.6308,-2.6351,-2.6381,-2.6435,-2.6466,-2.651,-2.6541,-2.657,-2.6582,-2.6605,-2.6663,-2.6702,-2.6753,-2.677,-2.6783,-2.684,-2.6835,-2.6833,-2.682,-2.6856,-2.6875,-2.6882,-2.679,-2.679,-2.679,-2.679,0,0,-2.6349,-2.6416,-2.6426,-2.6451,-2.6503,-2.6537,-2.6583,-2.6632,-2.6656,-2.6696,-2.6735,-2.6798,-2.6797,-2.6827,-2.6843,-2.6873,-2.6915,-2.6868,-2.6869,-2.6875,-2.698,-2.698,-2.6988,-2.6919,-2.6921,-2.6922,-2.6976,0,-2.6398,-2.6477,-2.6499,-2.6567,-2.6607,-2.6621,-2.6661,-2.6697,-2.6721,-2.676,-2.6787,-2.6831,-2.6826,-2.6844,-2.6874,-2.6903,-2.6936,-2.69,-2.6956,-2.6958,-2.6943,-2.6998,-2.6999,-2.7048,-2.6983,-2.6985,-2.6986,0,-2.6465,-2.6505,-2.6576,-2.6623,-2.6641,-2.6676,-2.6723,-2.6759,-2.6802,-2.6817,-2.685,-2.6864,-2.6913,-2.6898,-2.6966,-2.694,-2.6965,-2.6983,-2.6986,-2.6991,-2.6973,-2.7005,-2.7064,-2.7071,-2.6997,-2.6996,-2.6996,0,-2.6488,-2.656,-2.6611,-2.6633,-2.6689,-2.6713,-2.6737,-2.6778,-2.6807,-2.6848,-2.6867,-2.6914,-2.694,-2.6977,-2.7003,-2.699,-2.7069,-2.7056,-2.7083,-2.7082,-2.7098,-2.7097,-2.7162,-2.7115,-2.7115,-2.7115,-2.7115,0,-2.6539,-2.6582,-2.6622,-2.6654,-2.6703,-2.6729,-2.6777,-2.6802,-2.6839,-2.6877,-2.6892,-2.6928,-2.6961,-2.7001,-2.7023,-2.7075,-2.7087,-2.7101,-2.7106,-2.71,-2.7098,-2.7116,-2.7113,-2.7117,-2.7117,-2.7116,-2.7116,0,-2.6572,-2.6601,-2.6658,-2.6706,-2.672,-2.6753,-2.6795,-2.6827,-2.6852,-2.69,-2.6912,-2.6951,-2.6999,-2.7029,-2.7091,-2.7105,-2.7163,-2.7167,-2.7148,-2.7151,-2.7176,-2.7173,-2.7254,-2.7266,-2.7212,-2.7212,-2.7213,0,-2.6603,-2.6636,-2.6688,-2.6714,-2.6738,-2.678,-2.6809,-2.6836,-2.6866,-2.6917,-2.6943,-2.6992,-2.7032,-2.7109,-2.7143,-2.719,-2.7195,-2.7221,-2.7203,-2.7195,-2.7195,-2.7193,-2.7196,-2.7223,-2.7224,-2.7224,-2.7224,0,-2.6655,-2.6667,-2.6707,-2.6753,-2.6786,-2.6823,-2.6861,-2.6882,-2.6915,-2.6948,-2.6997,-2.7028,-2.7091,-2.7139,-2.719,-2.7216,-2.7226,-2.723,-2.7239,-2.7232,-2.7219,-2.7226,-2.7156,-2.7228,-2.7227,-2.7227,-2.7227,-2.7227,-2.6688,-2.6718,-2.6758,-2.6803,-2.6834,-2.6868,-2.6901,-2.6929,-2.697,-2.7022,-2.7036,-2.7087,-2.713,-2.7198,-2.7226,-2.7267,-2.7264,-2.7277,-2.728,-2.7282,-2.7282,-2.7213,-2.7277,-2.7276,-2.7276,-2.7276,-2.7276,0,-2.674,-2.6767,-2.6807,-2.6858,-2.6894,-2.6899,-2.6941,-2.697,-2.7015,-2.7053,-2.7092,-2.7149,-2.7196,-2.7234,-2.7283,-2.7309,-2.7315,-2.7321,-2.7319,-2.7325,-2.7283,-2.727,-2.7315,-2.7315,-2.7315,-2.7315,-2.7315,-2.7315,-2.6771,-2.6822,-2.6839,-2.6907,-2.6934,-2.6983,-2.7006,-2.7039,-2.7069,-2.7131,-2.717,-2.7194,-2.7233,-2.7285,-2.7329,-2.7339,-2.7356,-2.7361,-2.7372,-2.7332,-2.7328,-2.7324,-2.7312,-2.7365,-2.7365,-2.7411,-2.7411,-2.7412]},{"header":{"parameterUnit":"m.s-1","parameterCategory":1,"la1":30.2991,"la2":30.254,"lo1":-89.0895,"lo2":-89.0444,"dy":0.0017,"dx":0.0017,"nx":28,"ny":28,"refTime":"2024-05-12T21:00:00:Z","depth":0,"parameterNumber":3,"parameterNumberName":"V-component_of_WINDS"},"data":[0,0,0,0,0,0,0,0,0,0,0,0,0,0,0,0,0,0,0,0,0,0,0,0,0,0,0,0,0,0,0,0,0,0,0,0,0,0,0,0,0,0,0,0,0,0,0,0,0,0,0,0,0,0,0,0,0,0,6.2358,6.2359,0,6.2527,6.2529,6.2531,6.2497,6.2494,6.2491,6.2488,6.2657,6.2665,6.2672,0,0,0,0,0,0,0,0,0,0,0,0,0,6.2,6.2007,6.2357,6.2359,6.2362,6.2527,6.2529,6.2531,6.2498,6.2494,6.249,6.2487,6.2655,6.2664,6.2673,0,0,0,0,0,0,0,0,0,0,0,0,0,6.2161,6.2009,6.2357,6.2365,6.2367,6.2526,6.2529,6.2532,6.2499,6.2494,6.249,6.2485,6.2652,6.2663,6.2674,6.2834,0,0,6.2707,6.2712,0,0,0,0,0,0,0,0,6.2152,6.2174,6.2362,6.2365,6.2368,6.2486,6.2465,6.2633,6.25,6.2449,6.2488,6.2483,6.2604,6.2619,6.266,6.2842,6.2849,6.2708,6.2715,6.272,6.2723,0,0,0,0,0,0,0,6.2141,6.2166,6.2424,6.2364,6.2368,6.2358,6.2376,6.2497,6.255,6.2453,6.2451,6.2472,6.2605,6.265,6.2664,6.2851,6.2708,6.2718,6.2725,6.2729,6.317,6.3175,0,0,0,0,0,0,6.2127,6.2157,6.2419,6.2429,6.2246,6.2369,6.2389,6.2453,6.2549,6.2559,6.2475,6.2469,6.2633,6.2651,6.267,6.2862,6.272,6.273,6.2736,6.3165,6.3172,6.3177,0,0,0,0,0,0,6.212,6.2151,6.2412,6.2293,6.2325,6.238,6.2452,6.2459,6.2504,6.2566,6.2574,6.2512,6.263,6.2654,6.2793,6.2868,6.2735,6.2745,6.3159,6.3167,6.3174,6.3249,0,0,0,0,0,0,6.211,6.2149,6.2211,6.2295,6.2332,6.2534,6.2457,6.2465,6.2523,6.2517,6.2602,6.2612,6.2629,6.2777,6.2804,6.2881,6.2754,6.3153,6.3163,6.3172,6.324,6.3258,6.3274,0,0,0,0,0,6.2097,6.2225,6.2215,6.2246,6.2412,6.2539,6.256,6.2578,6.253,6.2592,6.2631,6.2609,6.2855,6.2791,6.2822,6.2903,6.3148,6.316,6.3171,6.3233,6.3255,6.3274,0,0,0,0,0,0,6.2147,6.2236,6.2225,6.2384,6.2454,6.2533,6.2612,6.2601,6.2685,6.2675,6.2692,6.2712,6.2853,6.2892,6.2819,6.3062,6.2995,6.3013,6.3031,6.3053,6.3069,6.3056,6.2763,0,0,0,0,0,6.2177,6.2275,6.2346,6.2479,6.2515,6.2558,6.2614,6.2621,6.2694,6.2723,6.2773,6.2843,6.2935,6.2996,6.3085,6.3246,6.3263,6.3316,6.3333,6.3347,6.3362,6.3448,6.3472,6.3215,6.3215,6.3215,0,0,6.2239,6.23,6.236,6.2491,6.2546,6.2645,6.2583,6.269,6.2763,6.2739,6.2873,6.2912,6.2991,6.3141,6.3209,6.3178,6.3437,6.3361,6.3372,6.338,6.3462,6.3487,6.3508,6.3223,6.3221,6.322,0,0,6.2403,6.2459,6.2576,6.2632,6.2717,6.2744,6.2772,6.2853,6.2878,6.3013,6.2997,6.3083,6.3243,6.33,6.335,6.3534,6.3516,6.3562,6.365,6.3734,6.3754,6.3772,6.3837,6.386,6.3577,6.3578,6.3578,0,6.2469,6.2619,6.2637,6.2746,6.2803,6.2787,6.2904,6.2957,6.3066,6.3105,6.3069,6.3269,6.3321,6.3483,6.3528,6.357,6.3601,6.3552,6.375,6.3768,6.3785,6.3847,6.3871,6.3583,6.3582,6.3581,6.3581,0,6.2695,6.2799,6.2882,6.2989,6.3056,6.3168,6.3202,6.3267,6.3268,6.3299,6.3436,6.3498,6.3599,6.3638,6.3641,6.3801,6.3778,6.3746,6.3679,6.3815,6.3873,6.3896,6.359,6.3588,6.3586,6.3585,0,0,6.2895,6.301,6.304,6.3088,6.318,6.3259,6.337,6.347,6.3525,6.36,6.3692,6.3828,6.3799,6.3855,6.3864,6.3937,6.4078,6.3896,6.3898,6.3926,6.4256,6.4279,6.4307,6.4067,6.4071,6.4075,6.4249,0,6.3066,6.3263,6.3282,6.3458,6.3553,6.3539,6.3635,6.3701,6.3732,6.3816,6.385,6.3946,6.39,6.3934,6.4007,6.4045,6.4144,6.4033,6.4151,6.4155,6.4131,6.4337,6.4363,6.4524,6.4272,6.4276,6.4279,0,6.3292,6.3375,6.3561,6.3638,6.3679,6.3765,6.3857,6.3939,6.4012,6.403,6.4093,6.4091,6.4204,6.4133,6.4287,6.4211,6.4261,6.4287,6.4293,6.4304,6.4224,6.4352,6.4576,6.46,6.4315,6.4312,6.431,0,6.3418,6.3576,6.3707,6.3748,6.3842,6.3903,6.3945,6.4014,6.4072,6.4153,6.419,6.4282,6.4332,6.4403,6.4425,6.4372,6.4578,6.451,6.4595,6.4594,6.4638,6.4635,6.4871,6.4672,6.4671,6.4671,6.467,0,6.3606,6.372,6.3764,6.3845,6.3972,6.3991,6.4116,6.4154,6.4216,6.4302,6.4295,6.4376,6.4402,6.4487,6.4505,6.4629,6.4652,6.4668,6.4671,6.4669,6.4666,6.47,6.4689,6.4677,6.4676,6.4674,6.4673,0,6.3768,6.3803,6.3944,6.4022,6.4044,6.4134,6.4199,6.4276,6.4306,6.4415,6.4442,6.4489,6.4589,6.4618,6.4738,6.475,6.4895,6.4889,6.4871,6.4871,6.4953,6.4945,6.522,6.5256,6.5033,6.5035,6.5037,0,6.3886,6.3973,6.406,6.4118,6.4162,6.4256,6.4315,6.4338,6.44,6.449,6.4556,6.4654,6.4735,6.4894,6.4938,6.5029,6.5024,6.5114,6.5038,6.5032,6.5024,6.5019,6.5027,6.5128,6.5131,6.5132,6.5134,0,6.4091,6.4103,6.419,6.4283,6.4355,6.4429,6.45,6.4547,6.458,6.4649,6.4752,6.4814,6.4936,6.5034,6.5127,6.5168,6.5156,6.5158,6.5182,6.5179,6.5165,6.5173,6.4909,6.5151,6.515,6.5148,6.5147,6.5147,6.4234,6.431,6.4383,6.448,6.4535,6.4602,6.4678,6.4717,6.4803,6.4905,6.4913,6.5023,6.5093,6.5216,6.5262,6.5348,6.5322,6.5357,6.5366,6.5374,6.538,6.5152,6.5365,6.5364,6.5364,6.5364,6.5363,0,6.4437,6.4483,6.4572,6.4672,6.4748,6.4731,6.4809,6.4873,6.497,6.5037,6.5116,6.5233,6.5327,6.5378,6.5472,6.5531,6.5528,6.5555,6.555,6.5559,6.5399,6.5368,6.5555,6.5555,6.5555,6.5555,6.5555,6.5555,6.4552,6.468,6.4701,6.4856,6.4901,6.501,6.5056,6.5116,6.5169,6.5301,6.5379,6.5412,6.5473,6.557,6.5656,6.5668,6.5702,6.5732,6.5742,6.5591,6.5571,6.5552,6.5523,6.574,6.574,6.5895,6.5896,6.5897]}]]